This is the latest recevied weather packets stored in our database for station/object DW9280. If no packets are shown the sender has not sent any weather packets the latest 10 day(s).
| Time | Temp. | Humidity | Pressure | Rain* | Wind** | Luminosity | Snow |
|---|---|---|---|---|---|---|---|
| 1787820755 | 21.11° C | 79% | 1010.8 hPa | 0 mm | - | 227 W/m² | - |
| 1787820457 | 21.11° C | 80% | 1010.8 hPa | 0 mm | - | 220 W/m² | - |
| 1787820159 | 21.11° C | 80% | 1010.7 hPa | 0 mm | - | 244 W/m² | - |
| 1787819983 | 20.56° C | 80% | 1010.8 hPa | 0 mm | - | 301 W/m² | - |
| 1787819557 | 20.56° C | 81% | 1010.9 hPa | 0 mm | - | 246 W/m² | - |
| 1787819257 | 20.56° C | 81% | 1011.1 hPa | 0 mm | - | 236 W/m² | - |
| 1787818957 | 20.56° C | 81% | 1011.2 hPa | 0 mm | - | 258 W/m² | - |
| 1787818655 | 20.56° C | 81% | 1011.2 hPa | 0 mm | - | 306 W/m² | - |
| 1787818356 | 20.56° C | 82% | 1011.2 hPa | 0 mm | - | 366 W/m² | - |
| 1787818055 | 20° C | 82% | 1011.4 hPa | 0 mm | - | 381 W/m² | - |
| 1787817751 | 20° C | 83% | 1011.5 hPa | 0 mm | - | 336 W/m² | - |
| 1787817448 | 20° C | 84% | 1011.5 hPa | 0 mm | - | 276 W/m² | - |
| 1787817270 | 19.44° C | 85% | 1011.4 hPa | 0 mm | - | 279 W/m² | - |
| 1787816842 | 19.44° C | 85% | 1011.4 hPa | 0 mm | - | 223 W/m² | - |
| 1787816539 | 18.89° C | 85% | 1011.4 hPa | 0 mm | - | 199 W/m² | - |
| 1787816236 | 18.89° C | 86% | 1011.5 hPa | 0 mm | - | 207 W/m² | - |
| 1787815934 | 18.89° C | 87% | 1011.4 hPa | 0 mm | - | 207 W/m² | - |
| 1787815757 | 18.33° C | 87% | 1011.5 hPa | 0 mm | - | 199 W/m² | - |
| 1787815456 | 18.33° C | 88% | 1011.6 hPa | 0 mm | - | 176 W/m² | - |
| 1787815032 | 18.33° C | 88% | 1011.7 hPa | 0 mm | - | 183 W/m² | - |
| 1787814732 | 17.78° C | 88% | 1011.8 hPa | 0 mm | - | 172 W/m² | - |
| 1787814429 | 17.78° C | 89% | 1011.8 hPa | 0 mm | - | 158 W/m² | - |
| 1787814129 | 17.78° C | 89% | 1011.9 hPa | 0 mm | - | 149 W/m² | - |
| 1787813826 | 17.78° C | 89% | 1012 hPa | 0 mm | - | 142 W/m² | - |
| 1787813528 | 17.22° C | 90% | 1012 hPa | 0 mm | - | 139 W/m² | - |
* Rain latest hour (hover to see other rain measurements)
** Current wind speed in m/s (hover to see current wind gust speed)